Location: Mentone
(34.5413°N, 85.5351°W)
Time: 22:25:43
(UTC-05:00)

Tiros 1 despin weight - All Passes

Search period start: 27 September 2016 00:00
Search period end: 07 October 2016 00:00
Orbit: 596 x 644 km, 48.2° (Epoch: 26 September)

Date Brightness Start Highest point End Pass type
(mag) Time Alt. Az. Time Alt. Az. Time Alt. Az.
27 Sep - 00:36:11 10° SW 00:40:36 84° NW 00:45:05 10° NE night (unlit)
27 Sep - 02:19:15 10° WNW 02:22:43 22° NNW 02:26:12 10° NNE visible
27 Sep - 04:03:13 10° NNW 04:05:38 14° N 04:08:04 10° NNE visible
27 Sep - 05:44:49 10° NNW 05:48:30 24° NNE 05:52:14 10° ENE visible
27 Sep - 07:25:57 10° NW 07:30:32 86° SW 07:35:10 10° SE daylight
27 Sep - 09:09:38 10° WSW 09:11:37 13° SW 09:13:35 10° SSW daylight
27 Sep - 23:12:36 10° SSW 23:16:27 30° SE 23:20:19 10° ENE night (unlit)
28 Sep - 00:53:41 10° WSW 00:57:54 43° NNW 01:02:10 10° NE night (unlit)
28 Sep - 02:37:34 10° NW 02:40:24 16° NNW 02:43:15 10° NNE visible
28 Sep - 04:20:43 10° NNW 04:23:25 15° N 04:26:09 10° NE visible
28 Sep - 06:01:48 10° NW 06:06:01 37° NNE 06:10:17 10° E visible
28 Sep - 07:43:21 10° WNW 07:47:39 41° SW 07:51:59 10° SSE daylight
28 Sep - 23:29:08 10° SW 23:33:29 66° SE 23:37:54 10° ENE night (unlit)
29 Sep - 01:11:37 10° W 01:15:22 26° NNW 01:19:10 10° NE night (unlit)
29 Sep - 02:55:45 10° NW 02:58:11 14° N 03:00:35 10° NNE visible
29 Sep - 04:37:49 10° NNW 04:41:08 20° NNE 04:44:28 10° ENE visible
29 Sep - 06:18:50 10° NW 06:23:22 67° NE 06:27:57 10° ESE daylight
29 Sep - 08:01:22 10° W 08:04:38 19° SW 08:07:55 10° S daylight
29 Sep - 22:06:15 10° S 22:09:27 20° SE 22:12:40 10° E night (unlit)
29 Sep - 23:46:20 10° WSW 23:50:42 61° NW 23:55:06 10° NE night (unlit)
30 Sep - 01:29:50 10° WNW 01:32:58 19° NNW 01:36:09 10° NNE night (unlit)
30 Sep - 03:13:30 10° NNW 03:15:58 14° N 03:18:26 10° NE visible
30 Sep - 04:54:48 10° NW 04:58:43 28° NNE 05:02:41 10° E visible
30 Sep - 06:36:03 10° WNW 06:40:33 61° SW 06:45:06 10° SE daylight
30 Sep - 22:22:15 10° SSW 22:26:25 43° SE 22:30:37 10° ENE night (unlit)
01 Oct - 00:04:03 10° W 00:08:04 34° NNW 00:12:08 10° NE night (unlit)
01 Oct - 01:48:08 10° NW 01:50:43 15° N 01:53:17 10° NNE night (unlit)
01 Oct - 03:30:47 10° NNW 03:33:43 17° NNE 03:36:41 10° NE visible
01 Oct - 05:11:47 10° NW 05:16:09 47° NNE 05:20:35 10° ESE visible
01 Oct - 06:53:41 10° WNW 06:57:36 29° SW 07:01:33 10° SSE daylight
01 Oct - 21:00:32 10° SSE 21:02:29 13° SE 21:04:27 10° ESE night (unlit)
01 Oct - 22:39:08 10° SW 22:43:33 88° NNW 22:47:59 10° NE night (unlit)
02 Oct - 00:22:08 10° WNW 00:25:35 22° NNW 00:29:05 10° NNE night (unlit)
02 Oct - 02:06:10 10° NNW 02:08:29 14° N 02:10:49 10° NNE night (unlit)
02 Oct - 03:47:48 10° NNW 03:51:22 23° NNE 03:54:59 10° ENE visible
02 Oct - 05:28:53 10° NW 05:33:26 90° SE 05:38:00 10° SE visible
02 Oct - 07:12:22 10° W 07:14:31 13° SW 07:16:42 10° SSW daylight
02 Oct - 21:15:37 10° SSW 21:19:24 28° SE 21:23:11 10° ENE night (unlit)
02 Oct - 22:56:35 10° WSW 23:00:49 45° NNW 23:05:06 10° NE night (unlit)
03 Oct - 00:40:26 10° NW 00:43:16 16° NNW 00:46:07 10° NNE night (unlit)
03 Oct - 02:23:40 10° NNW 02:26:17 15° N 02:28:54 10° NE night (unlit)
03 Oct - 04:04:45 10° NW 04:08:53 35° NNE 04:13:03 10° E visible
03 Oct - 05:46:15 10° WNW 05:50:33 43° SW 05:54:53 10° SSE visible
03 Oct - 21:32:05 10° SW 21:36:26 62° SE 21:40:48 10° ENE night (unlit)
03 Oct - 23:14:28 10° W 23:18:15 27° NNW 23:22:04 10° NE night (unlit)
04 Oct - 00:58:39 10° NW 01:01:01 14° N 01:03:24 10° NNE night (unlit)
04 Oct - 02:40:47 10° NNW 02:43:59 19° NNE 02:47:13 10° ENE visible
04 Oct - 04:21:47 10° NW 04:26:15 63° NE 04:30:45 10° ESE visible
04 Oct - 06:04:12 10° W 06:07:31 20° SW 06:10:52 10° S visible
04 Oct - 20:09:18 10° S 20:12:23 19° SE 20:15:29 10° E visible
04 Oct - 21:49:14 10° WSW 21:53:37 64° NW 21:58:01 10° NE night (unlit)
04 Oct - 23:32:41 10° WNW 23:35:51 19° NNW 23:39:01 10° NNE night (unlit)
05 Oct - 01:16:27 10° NNW 01:18:49 14° N 01:21:11 10° NE night (unlit)
05 Oct - 02:57:45 10° NW 03:01:35 27° NNE 03:05:26 10° E visible
05 Oct - 04:38:59 10° WNW 04:43:27 65° SW 04:47:57 10° SE visible
05 Oct - 20:25:12 10° SSW 20:29:21 40° SE 20:33:30 10° ENE visible
05 Oct - 22:06:54 10° W 22:10:58 35° NNW 22:15:02 10° NE night (unlit)
05 Oct - 23:51:00 10° NW 23:53:33 15° N 23:56:08 10° NNE night (unlit)
06 Oct - 01:33:44 10° NNW 01:36:35 16° NNE 01:39:25 10° NE night (unlit)
06 Oct - 03:14:43 10° NW 03:19:01 44° NNE 03:23:21 10° ESE visible
06 Oct - 04:56:33 10° WNW 05:00:29 30° SW 05:04:28 10° SSE visible
06 Oct - 19:03:44 10° SSE 19:05:25 12° SE 19:07:06 10° ESE visible
06 Oct - 20:42:01 10° SW 20:46:27 87° SE 20:50:54 10° NE visible
06 Oct - 22:24:57 10° WNW 22:28:28 22° NNW 22:31:59 10° NNE night (unlit)
